Location: Dampierre
(47.8481°N, 6.1830°E)
Time: 17:04:15
(UTC+00:00)

Daily predictions for brighter satellites

Satellite Brightness Start Highest point End
(mag) Time Altitude Azimuth Time Altitude Azimuth Time Altitude Azimuth
BREEZE-M DEB (TANK) 3.6 17:58:37 10° WNW 18:02:13 81° N 18:15:26 10° E
CZ-4 R/B 1.2 18:11:05 10° SSE 18:14:57 81° ENE 18:18:48 10° NNW
Cosmos 1733 Rocket 3.8 18:11:49 10° SSE 18:15:34 29° E 18:19:19 10° NNE
Cosmos 1544 4.0 18:12:23 10° SSW 18:15:55 54° WNW 18:19:29 10° N
Cosmos 2278 Rocket 2.4 18:10:57 10° S 18:16:22 49° ESE 18:21:49 10° NE
Cosmos 1709 Rocket 4.0 18:11:22 10° S 18:17:34 67° E 18:23:43 10° NNE
Genesis I 3.2 18:14:30 10° SSW 18:18:22 69° SE 18:22:22 10° NE
H-2A R/B 2.0 18:16:48 10° NNE 18:21:07 64° ESE 18:25:16 10° S
Cosmos 2208 Rocket 4.0 18:21:44 10° NNW 18:26:58 72° ENE 18:32:14 10° SSE
Cosmos 1356 Rocket 3.8 18:23:42 10° SSE 18:27:42 43° E 18:31:46 10° NNE
Cosmos 841 Rocket 4.3 18:22:33 10° NNW 18:27:43 57° WSW 18:32:49 10° S
DMSP B5D2-2 4.2 18:24:18 10° NNE 18:29:32 58° E 18:34:44 10° S
Cosmos 1814 Rocket 4.2 18:24:14 10° NNW 18:29:38 84° WSW 18:34:57 10° SSE
IRS-1C Rocket 4.1 18:25:27 10° SSE 18:30:43 86° ENE 18:36:01 10° NNW
COSMOS 2455 3.9 18:26:12 10° NNW 18:31:28 30° NE 18:36:25 11° E
SeaSat 1 2.5 18:27:40 10° SE 18:32:35 72° ENE 18:37:31 10° NNW
Cosmos 2344 4.3 18:27:16 10° WSW 18:34:30 54° NW 18:42:30 10° NE
Okean O Rocket 3.9 18:30:49 10° SSW 18:34:36 28° W 18:38:24 10° NW
ARGOS 4.1 18:29:30 10° S 18:34:44 53° W 18:40:00 10° NNW
ERBS 2.8 18:37:43 10° SSW 18:40:45 35° SE 18:43:38 11° ENE
Cosmos 1707 3.6 18:37:26 10° N 18:40:56 30° ENE 18:44:05 12° SE
Cosmos 1743 3.5 18:37:55 10° SSW 18:41:42 56° WNW 18:45:32 10° N
Cosmos 1975 3.2 18:39:26 10° SSE 18:43:10 41° E 18:46:56 10° NNE
CSL-04 Debris 4.1 18:38:04 10° SSE 18:43:28 77° ENE 18:48:54 10° NNW
OBJECT-B 1.3 18:41:41 10° SE 18:44:42 39° ENE 18:47:44 10° N
Cosmos 1943 Rocket 3.4 18:41:22 10° SE 18:45:04 18° E 18:48:47 10° ENE
Cosmos 968 Rocket 3.7 18:40:20 10° S 18:45:22 50° ESE 18:50:27 10° NNE
USA 215 4.0 18:39:24 10° SSE 18:45:44 50° SW 18:52:06 10° WNW
USA 305 3.0 18:43:52 10° WSW 18:48:05 77° NNW 18:52:20 10° ENE
Lacrosse 5 rocket 3.1 18:44:48 10° NW 18:48:44 27° N 18:52:32 10° ENE
ISS -2.2 18:49:41 10° S 18:52:05 18° SE 18:52:24 18° SE
CZ-2C R/B 3.8 18:47:03 10° N 18:52:15 48° WNW 18:57:32 10° SW
Cosmos 921 Rocket 3.0 18:48:50 10° NNW 18:53:14 89° WSW 18:57:30 10° SSE
Cosmos 1486 Rocket 4.4 18:50:21 10° S 18:55:13 41° ESE 19:00:10 10° NE
Cosmos 1461 4.2 18:52:27 10° NNW 18:55:53 25° NE 18:57:53 17° E
SL-4 R/B 3.1 18:54:32 10° W 18:57:36 30° SW 19:00:24 12° SSE
USA 307 3.1 18:54:33 10° WSW 18:58:47 73° NNW 19:03:02 10° ENE
Nadezhda 3 Rocket 4.4 18:56:50 10° N 19:02:40 42° ENE 19:07:20 16° SE
Cosmos 1908 Rocket 4.2 18:58:52 10° SSE 19:02:55 35° E 19:06:58 10° NNE
Meteor 2-9 Rocket 4.3 18:57:24 10° S 19:03:14 84° E 19:09:09 10° NNE
Cosmos 1842 3.6 19:00:11 10° NNW 19:04:07 67° W 19:08:01 10° S
USA 281 3.9 18:59:22 10° NE 19:05:00 29° ESE 19:10:34 10° SSE
SJ-6B 2.9 19:04:20 12° SSE 19:08:01 66° ENE 19:12:08 10° N
Cosmos 1689 Rocket 4.1 19:05:57 10° NE 19:06:35 14° NE 19:06:35 14° NE
Cosmos 1400 Rocket 3.5 19:07:16 18° SSE 19:09:45 33° E 19:13:27 10° NNE
Cosmos 2221 Rocket 4.2 19:07:11 10° NNW 19:11:34 57° W 19:15:52 10° S
Cosmos 1378 Rocket 3.5 19:08:24 10° N 19:12:49 79° E 19:17:06 11° SSE
ATLAS CENTAUR R/B 2.8 19:11:11 10° NNW 19:15:11 29° NE 19:17:09 22° ENE
USA 306 3.4 19:11:25 10° WSW 19:15:35 58° NNW 19:19:11 14° NE
Cosmos 1674 3.3 19:14:07 10° N 19:17:32 34° ENE 19:18:00 32° E
USA 308 3.4 19:13:35 10° WSW 19:17:46 60° NNW 19:21:18 14° NE
Inspiration4 3.0 19:20:06 10° SW 19:24:11 45° SE 19:25:24 35° ESE
Okean-O 4.3 19:20:34 10° SSW 19:24:37 35° W 19:28:42 10° NNW
Cosmos 1833 Rocket 4.4 19:21:33 10° NW 19:26:26 31° WSW 19:31:18 10° SSW
Cosmos 1674 Rocket 3.9 19:22:39 10° NNW 19:27:01 66° W 19:31:18 10° S
Meteor 2-12 Rocket 4.5 19:22:16 10° S 19:28:24 85° W 19:34:33 10° N
CZ-4B R/B 3.3 19:26:28 10° N 19:29:08 29° WNW 19:31:49 10° SW
In-Cosmos 22 4.0 19:24:43 10° N 19:30:04 88° ENE 19:34:24 16° S
USA 186 2.8 19:30:09 19° SSW 19:31:38 37° W 19:34:19 10° NNW
Cosmos 2074 Rocket 4.0 19:25:44 10° S 19:31:58 90° W 19:38:18 10° N
Lacrosse 4 Rocket 2.8 19:31:22 10° WSW 19:35:09 38° NW 19:38:59 10° NNE
Cosmos 773 Rocket 4.4 19:31:00 10° NNW 19:36:01 45° ENE 19:37:33 36° ESE
SPOT 3 Rocket 4.1 19:36:02 33° E 19:37:15 38° ENE 19:42:00 10° N
Cosmos 1932 4.4 19:31:07 10° SW 19:37:24 89° NW 19:43:41 10° NE
Cosmos 2082 Rocket 2.9 19:32:13 10° NW 19:37:45 52° WSW 19:42:45 12° S
Resurs 01 Rocket 1.9 19:40:22 44° ESE 19:41:08 49° ENE 19:45:24 10° N
Okean 2 4.3 19:38:44 10° NNW 19:42:40 46° W 19:46:18 12° SSW
Cosmos 1340 4.1 19:45:53 10° NNW 19:49:22 36° W 19:52:08 15° SSW
CSL-04 DEB 4.5 19:47:02 10° NNE 19:51:03 74° WNW 19:54:58 10° SSW
Helios 1A Rocket 3.2 19:49:40 32° S 19:51:27 65° WSW 19:55:33 10° NNW
Cosmos 1782 Rocket 3.5 19:52:42 58° SE 19:53:09 62° E 19:57:33 10° NNE
ARIANE 5 R/B 4.4 19:54:54 19° NE 19:54:54 19° NE 19:57:11 10° NNE
Ariane Rocket 2.9 19:53:09 36° SSE 19:55:17 89° W 20:00:24 10° NNW
Terra 3.7 19:56:16 16° NE 19:56:16 16° NE 19:58:32 10° NNE
ERS-1 Rocket 4.3 19:59:20 24° NE 19:59:20 24° NE 20:02:59 10° N
IRS-1A Rocket 4.4 19:57:02 27° S 20:00:23 77° WSW 20:06:18 10° NNW
Cosmos 2278 Rocket 3.9 19:55:33 10° WSW 20:00:39 33° NW 20:05:47 10° NNE
Cosmos 2297 3.6 19:57:33 10° SSW 20:03:13 81° ESE 20:08:58 10° NNE
Resurs 1-3 4.3 20:06:22 32° SSW 20:08:06 51° W 20:12:24 10° NNW
Cosmos 1626 2.6 20:04:27 10° N 20:07:24 54° N 20:07:24 54° N
Cosmos 1346 Rocket 2.8 20:04:46 10° N 20:08:28 75° N 20:08:28 75° N
Cosmos 2369 Rocket 3.5 20:12:19 25° NE 20:12:19 25° NE 20:14:48 10° NE
Cosmos 1503 Rocket 4.0 20:08:25 10° SSW 20:13:38 77° WNW 20:18:52 10° NNE
SPOT 1/Viking Rocket 3.4 20:15:41 67° E 20:16:02 69° ENE 20:21:12 10° N
Landsat 7 3.8 20:16:04 63° SSW 20:16:46 78° WSW 20:21:34 10° NNW
ERBS 3.9 20:13:43 10° W 20:16:21 34° NW 20:16:21 34° NW
OBJECT-B 3.8 20:15:28 10° WSW 20:16:59 13° W 20:18:31 10° WNW
COSMOS 2455 3.0 20:11:56 10° NW 20:17:57 70° WSW 20:19:34 49° S
Cosmos 962 Rocket 4.3 20:16:03 36° S 20:18:47 82° E 20:24:59 10° N
IGS 5A 3.8 20:19:04 56° WSW 20:19:20 57° W 20:23:26 10° NNW
Cosmos 1975 Rocket 3.2 20:17:39 10° NNW 20:22:03 71° W 20:22:05 71° WSW
Cosmos 1354 Rocket 4.1 20:20:00 10° SSW 20:25:15 73° WNW 20:30:32 10° NNE
Cosmos 1943 Rocket 2.2 20:22:35 10° SSW 20:28:08 76° WNW 20:33:47 10° NNE
USA 305 4.1 20:24:28 10° WNW 20:28:25 36° N 20:28:51 35° N
ISS -0.8 20:25:10 10° WSW 20:25:27 12° WSW 20:25:27 12° WSW
Lacrosse 5 rocket 2.1 20:24:10 10° NW 20:28:07 53° N 20:28:07 53° N
Cosmos 1461 4.0 20:31:15 10° NW 20:34:13 39° W 20:34:13 39° W
USA 307 4.2 20:35:14 10° WNW 20:39:08 36° N 20:39:08 36° N
Cosmos 1025 Rocket 3.8 20:37:01 10° NNW 20:40:23 50° NNW 20:40:23 50° NNW
SPOT 5 3.6 20:43:03 49° NE 20:43:03 49° NE 20:47:24 10° N
USA 281 3.5 20:43:23 10° NNE 20:49:53 64° WNW 20:56:20 10° SW
Spot 2 Rocket 3.9 20:51:41 59° N 20:51:41 59° N 20:55:47 10° NNW
SL-8 Rocket 4.0 20:52:19 69° SSW 20:53:06 81° W 20:59:27 10° N
Meteor 1-24 Rocket 3.9 20:48:28 10° N 20:52:51 61° N 20:52:51 61° N
ATLAS CENTAUR R/B 2.6 20:49:47 10° NW 20:53:17 45° WNW 20:53:17 45° WNW
Meteor 1-15 Rocket 4.3 20:56:17 68° W 20:56:27 68° WNW 21:02:03 10° N
Cosmos 1727 Rocket 4.0 20:51:15 10° N 20:57:07 68° NE 20:57:07 68° NE
Meteor 2-5 Rocket 4.2 21:08:25 10° NNW 21:13:16 55° WNW 21:13:16 55° WNW
Resurs 01 Rocket 3.8 21:17:56 19° W 21:17:56 19° W 21:21:06 10° NW
SJ 16-02 3.8 21:27:03 17° N 21:27:03 17° N 21:28:13 10° NNE
Cosmos 2297 Rocket 4.0 21:24:36 10° N 21:28:14 22° NNE 21:28:14 22° NNE
Cosmos 2218 Rocket 4.5 21:29:22 53° W 21:29:33 53° WNW 21:35:35 10° N
Terra 3.5 21:35:09 30° NNW 21:35:09 30° NNW 21:37:36 10° NNW
ERS-1 Rocket 4.4 21:39:20 35° NW 21:39:20 35° NW 21:42:25 10° NNW
Cosmos 2227 Rocket 4.0 21:45:23 10° N 21:48:50 23° NNE 21:48:50 23° NNE
Cosmos 2369 Rocket 3.5 21:54:02 37° NW 21:54:02 37° NW 21:58:52 10° NNE
CENTAUR R/B 4.0 22:53:55 33° NNE 22:53:55 33° NNE 22:57:48 10° NE
Cosmos 2297 Rocket 4.3 23:08:05 10° NNW 23:10:01 22° NNW 23:10:01 22° NNW
Cosmos 2227 Rocket 4.4 23:28:57 10° NNW 23:30:37 20° NNW 23:30:37 20° NNW
ATLAS 3B R/B 4.4 23:50:47 23° ENE 23:50:47 23° ENE 23:53:24 10° NE
